Starlink 1718

operational
NORAD ID: 46674 Int'l Des: 2020-073 Owner: SPXS Country: US Constellation: starlink
LEOCIRCULARSTARLINK_TYPE

About Starlink 1718

Description loading...

Live Position

Loading 3D Globe...

Upcoming Passes

Altitude History

Altitude vs Time

uPlot chart will show altitude changes over time

Two-Line Element Set

1 46674U 20073E 25297.97070392 .00000588 00000-0 58401-4 0 9994
2 46674 53.0520 130.8846 0002328 90.1595 269.9660 15.06396001276675
Epoch: Oct 24, 2025 • Age: 6 hours

Current Status

Altitude 559.6 km
Velocity 7.58 km/s
Sub-Earth Point -35.13°S, 17.84°W
Launch Date Oct 18, 2020
Age 5 years
Type internet

Technical Details

Classification Payload
Mass 260.00 kg
Dry Mass 248.00 kg
Total Mass 260.00 kg
Length 0.20 m
Diameter 2.80 m
Span 9.00 m
Shape Box + pan
Manufacturer SPXS
Bus Type Starlink
Phase Status In Orbit
Owner/State SPXS/US

Large Constellations

Loading constellations...